[[{"header":{"parameterUnit":"m.s-1","parameterCategory":2,"la1":30.2991,"la2":30.254,"lo1":-89.0895,"lo2":-89.0444,"dy":0.0017,"dx":0.0017,"nx":28,"ny":28,"refTime":"2025-11-09T03:00:00:Z","depth":"0","parameterNumber":2,"parameterNumberName":"U-component_of_CURRENTS"},"data":[0,0,0,0,0,0,0,0,0,0,0,0,0,0,0,0,0,0,0,0,0,0,0,0,0,0,0,0,0,0,0,0,0,0,0,0,0,0,0,0,0,0,0,0,0,0,0,0,0,0,0,0,0,0,0,0,0,0,0.1533,0.1533,0,0.1526,0.1526,0.1525,0.1521,0.1521,0.1521,0.1522,0.152,0.1519,0.1519,0,0,0,0,0,0,0,0,0,0,0,0,0,0.151,0.151,0.1533,0.1533,0.1533,0.1526,0.1526,0.1525,0.1521,0.1521,0.1521,0.1522,0.152,0.152,0.1519,0,0,0,0,0,0,0,0,0,0,0,0,0,0.1509,0.151,0.1533,0.1533,0.1534,0.1526,0.1526,0.1525,0.152,0.1521,0.1522,0.1522,0.152,0.152,0.1519,0.1505,0,0,0.1517,0.1517,0,0,0,0,0,0,0,0,0.1509,0.151,0.1533,0.1533,0.1534,0.1528,0.1517,0.152,0.152,0.1521,0.1522,0.1522,0.1526,0.1525,0.1516,0.1505,0.1505,0.1517,0.1517,0.1517,0.1516,0,0,0,0,0,0,0,0.1509,0.151,0.1526,0.1533,0.1534,0.1524,0.1524,0.1517,0.1517,0.1521,0.1522,0.1528,0.1525,0.1516,0.1516,0.1505,0.1517,0.1517,0.1516,0.1516,0.1515,0.1515,0,0,0,0,0,0,0.152,0.151,0.1526,0.1526,0.1527,0.1524,0.1524,0.1526,0.1517,0.1517,0.1527,0.1527,0.1517,0.1517,0.1516,0.1537,0.1517,0.1516,0.1516,0.1514,0.1515,0.1515,0,0,0,0,0,0,0.1519,0.1521,0.1526,0.1521,0.1522,0.1524,0.1526,0.1526,0.1525,0.1523,0.1522,0.1528,0.1518,0.1517,0.1518,0.1536,0.1516,0.1515,0.1514,0.1515,0.1515,0.1554,0,0,0,0,0,0,0.1519,0.1521,0.1529,0.1522,0.1523,0.1531,0.1526,0.1525,0.1529,0.1529,0.1523,0.1523,0.1518,0.1519,0.1518,0.1534,0.1515,0.1514,0.1514,0.1515,0.1553,0.1556,0.1559,0,0,0,0,0,0.1518,0.1529,0.1529,0.1532,0.1533,0.1531,0.153,0.1531,0.1529,0.153,0.1526,0.1524,0.1522,0.1519,0.1517,0.1534,0.1513,0.1514,0.1515,0.1551,0.1555,0.1559,0,0,0,0,0,0,0.1525,0.153,0.153,0.1542,0.1541,0.1533,0.1537,0.1533,0.1529,0.153,0.1523,0.1523,0.1536,0.1523,0.152,0.1534,0.1519,0.1519,0.1547,0.1551,0.1554,0.1567,0.1514,0,0,0,0,0,0.1531,0.1537,0.1538,0.1547,0.1548,0.1541,0.1542,0.154,0.1537,0.1535,0.1532,0.1529,0.1534,0.1534,0.1534,0.1535,0.1535,0.1545,0.1548,0.1551,0.156,0.1573,0.1578,0.1517,0.1517,0.1517,0,0,0.1534,0.1539,0.1542,0.1549,0.1545,0.1553,0.1542,0.1545,0.1554,0.1535,0.1546,0.1543,0.1538,0.1547,0.1551,0.154,0.1568,0.1552,0.1554,0.1562,0.1574,0.158,0.1586,0.1518,0.1518,0.1518,0,0,0.1548,0.1549,0.1562,0.1562,0.1567,0.1564,0.1568,0.1563,0.1565,0.1569,0.1566,0.1573,0.1568,0.1574,0.1575,0.1593,0.1589,0.1591,0.1614,0.1627,0.1632,0.1637,0.1646,0.1651,0.1588,0.1588,0.1588,0,0.1556,0.1569,0.1564,0.1577,0.1583,0.1572,0.1585,0.1584,0.1582,0.1592,0.1579,0.1592,0.1585,0.1608,0.1614,0.1603,0.1606,0.1602,0.1632,0.1637,0.1641,0.1649,0.1655,0.159,0.1589,0.1589,0.1589,0,0.1577,0.1589,0.1595,0.1609,0.1614,0.1619,0.1621,0.1628,0.1627,0.1631,0.1652,0.1639,0.1648,0.1646,0.1634,0.1663,0.1654,0.164,0.1626,0.165,0.1657,0.1662,0.1593,0.1592,0.1591,0.1591,0,0,0.1601,0.1609,0.1613,0.1622,0.1629,0.1635,0.1654,0.1673,0.1695,0.169,0.1716,0.1718,0.1712,0.1713,0.17,0.1704,0.1732,0.1684,0.1683,0.1699,0.1759,0.1789,0.1797,0.1723,0.1724,0.1725,0.1752,0,0.1623,0.1645,0.1648,0.1672,0.1682,0.1682,0.1702,0.1719,0.1728,0.1749,0.1746,0.1762,0.1737,0.1739,0.1744,0.1737,0.1746,0.1726,0.1728,0.1728,0.1757,0.1805,0.1911,0.1947,0.1757,0.1757,0.1758,0,0.1652,0.1663,0.1683,0.1704,0.171,0.1723,0.1756,0.1774,0.1803,0.1811,0.1826,0.1821,0.1833,0.18,0.1812,0.1799,0.1786,0.1776,0.1776,0.1796,0.1768,0.1891,0.1963,0.2005,0.1765,0.1765,0.1764,0,0.1671,0.1694,0.1707,0.171,0.173,0.1747,0.1764,0.1796,0.1821,0.185,0.187,0.188,0.1887,0.1876,0.1857,0.1834,0.1868,0.1832,0.185,0.1851,0.194,0.1947,0.2061,0.1847,0.1847,0.1847,0.1847,0,0.1692,0.1711,0.1714,0.1721,0.1749,0.1762,0.18,0.1822,0.186,0.1899,0.19,0.1932,0.1907,0.1918,0.1887,0.1899,0.1895,0.1875,0.187,0.1955,0.1964,0.2,0.1988,0.1848,0.1848,0.1847,0.1847,0,0.1707,0.1711,0.1729,0.1746,0.1754,0.1774,0.1814,0.1844,0.1882,0.1932,0.1942,0.198,0.2007,0.1986,0.1978,0.1952,0.1946,0.1946,0.2047,0.2055,0.2099,0.2084,0.2024,0.1968,0.1972,0.1973,0.1974,0,0.1712,0.1719,0.1735,0.174,0.1745,0.1774,0.1796,0.1846,0.1881,0.1966,0.1991,0.2041,0.2094,0.2108,0.2096,0.208,0.2003,0.2129,0.2105,0.2143,0.2122,0.1976,0.192,0.2234,0.2237,0.224,0.2242,0,0.1719,0.1722,0.1726,0.1729,0.1747,0.1773,0.1812,0.1847,0.1915,0.1979,0.2069,0.2127,0.2196,0.2255,0.2243,0.2233,0.2128,0.2176,0.2205,0.234,0.22,0.2132,0.216,0.2263,0.2261,0.2259,0.2258,0.2257,0.1718,0.1711,0.1707,0.1707,0.1727,0.1754,0.1771,0.184,0.1915,0.2028,0.2114,0.2259,0.2402,0.2432,0.2377,0.2432,0.2264,0.2435,0.2413,0.2257,0.2214,0.2283,0.2381,0.238,0.2379,0.2378,0.2377,0,0.1703,0.1687,0.1683,0.1679,0.168,0.1708,0.1761,0.1786,0.187,0.2069,0.2186,0.247,0.2598,0.2652,0.274,0.2705,0.2545,0.2671,0.2541,0.2468,0.2576,0.2606,0.2772,0.2772,0.2772,0.2772,0.2772,0.2772,0.1692,0.167,0.1653,0.1625,0.1624,0.1624,0.1646,0.1721,0.1854,0.2095,0.2315,0.2491,0.2734,0.3001,0.3047,0.2975,0.2761,0.2722,0.2567,0.2759,0.2736,0.2714,0.2742,0.2935,0.2935,0.2442,0.2439,0.2437]},{"header":{"parameterUnit":"m.s-1","parameterCategory":2,"la1":30.2991,"la2":30.254,"lo1":-89.0895,"lo2":-89.0444,"dy":0.0017,"dx":0.0017,"nx":28,"ny":28,"refTime":"2025-11-09T03:00:00:Z","depth":"0","parameterNumber":3,"parameterNumberName":"V-component_of_CURRENTS"},"data":[0,0,0,0,0,0,0,0,0,0,0,0,0,0,0,0,0,0,0,0,0,0,0,0,0,0,0,0,0,0,0,0,0,0,0,0,0,0,0,0,0,0,0,0,0,0,0,0,0,0,0,0,0,0,0,0,0,0,-0.0306,-0.0307,0,-0.0311,-0.0311,-0.0311,-0.0327,-0.0328,-0.0329,-0.033,-0.0337,-0.0337,-0.0336,0,0,0,0,0,0,0,0,0,0,0,0,0,-0.0303,-0.0303,-0.0306,-0.0307,-0.0307,-0.0311,-0.0311,-0.0311,-0.0327,-0.0328,-0.0329,-0.033,-0.0338,-0.0337,-0.0336,0,0,0,0,0,0,0,0,0,0,0,0,0,-0.0302,-0.0303,-0.0306,-0.0319,-0.032,-0.0311,-0.0311,-0.031,-0.0327,-0.0328,-0.0329,-0.033,-0.0338,-0.0337,-0.0336,-0.0311,0,0,-0.0334,-0.0334,0,0,0,0,0,0,0,0,-0.0302,-0.0302,-0.0316,-0.0318,-0.0319,-0.0323,-0.0313,-0.0312,-0.0327,-0.032,-0.033,-0.0331,-0.0334,-0.0334,-0.0327,-0.0311,-0.0311,-0.0334,-0.0334,-0.0333,-0.0333,0,0,0,0,0,0,0,-0.0302,-0.0302,-0.0304,-0.0317,-0.0319,-0.0321,-0.0322,-0.0312,-0.0319,-0.0321,-0.0323,-0.0329,-0.0335,-0.0328,-0.0328,-0.0311,-0.0334,-0.0334,-0.0333,-0.0333,-0.0302,-0.0301,0,0,0,0,0,0,-0.0308,-0.0302,-0.0304,-0.0305,-0.0318,-0.0321,-0.0321,-0.0318,-0.0319,-0.0321,-0.0328,-0.033,-0.0329,-0.0328,-0.0328,-0.0312,-0.0333,-0.0333,-0.0332,-0.0302,-0.0302,-0.0301,0,0,0,0,0,0,-0.0308,-0.0308,-0.0304,-0.0307,-0.0307,-0.032,-0.0316,-0.0317,-0.0316,-0.0325,-0.0327,-0.0327,-0.0329,-0.0329,-0.0325,-0.0312,-0.0333,-0.0332,-0.0303,-0.0302,-0.0301,-0.0271,0,0,0,0,0,0,-0.0308,-0.0308,-0.0307,-0.0307,-0.0308,-0.0298,-0.0315,-0.0317,-0.032,-0.0322,-0.0323,-0.0325,-0.033,-0.0326,-0.0324,-0.0312,-0.0331,-0.0303,-0.0302,-0.0302,-0.0273,-0.027,-0.0267,0,0,0,0,0,-0.0307,-0.0304,-0.0307,-0.0307,-0.0306,-0.0298,-0.0298,-0.0309,-0.0318,-0.0312,-0.0318,-0.0325,-0.032,-0.0325,-0.0323,-0.031,-0.0304,-0.0303,-0.0302,-0.0274,-0.027,-0.0267,0,0,0,0,0,0,-0.0303,-0.0305,-0.0309,-0.0306,-0.0303,-0.0303,-0.0298,-0.0306,-0.0304,-0.0305,-0.0317,-0.0318,-0.0311,-0.0314,-0.0319,-0.03,-0.0314,-0.0312,-0.0293,-0.029,-0.0287,-0.0284,-0.0331,0,0,0,0,0,-0.0301,-0.0297,-0.0298,-0.0294,-0.029,-0.0292,-0.0292,-0.0296,-0.0296,-0.0296,-0.0303,-0.0306,-0.0302,-0.03,-0.0299,-0.0283,-0.0296,-0.0275,-0.0272,-0.027,-0.0267,-0.0275,-0.0272,-0.0298,-0.0298,-0.0298,0,0,-0.0298,-0.03,-0.0297,-0.0293,-0.0288,-0.0274,-0.0293,-0.0285,-0.0277,-0.0296,-0.0287,-0.0294,-0.0297,-0.0284,-0.0281,-0.0287,-0.0271,-0.0269,-0.0266,-0.0265,-0.0273,-0.0271,-0.0269,-0.0298,-0.0298,-0.0298,0,0,-0.0283,-0.0287,-0.0273,-0.0266,-0.026,-0.0262,-0.026,-0.0258,-0.0259,-0.025,-0.0265,-0.0268,-0.026,-0.0263,-0.0262,-0.024,-0.0256,-0.0238,-0.0218,-0.0225,-0.0223,-0.0222,-0.0242,-0.0242,-0.0235,-0.0235,-0.0235,0,-0.0281,-0.0261,-0.0268,-0.0249,-0.0241,-0.0254,-0.0233,-0.0232,-0.0233,-0.0228,-0.0245,-0.0241,-0.0249,-0.0233,-0.0231,-0.0233,-0.0244,-0.023,-0.0222,-0.022,-0.0219,-0.024,-0.0241,-0.0234,-0.0234,-0.0234,-0.0234,0,-0.0247,-0.0233,-0.0221,-0.0202,-0.0197,-0.0178,-0.018,-0.0176,-0.0186,-0.0188,-0.0181,-0.0197,-0.0196,-0.0199,-0.0209,-0.0199,-0.0213,-0.0218,-0.023,-0.0215,-0.0238,-0.0239,-0.0232,-0.0232,-0.0233,-0.0233,0,0,-0.0236,-0.0203,-0.0199,-0.0179,-0.0167,-0.0157,-0.0143,-0.0132,-0.0117,-0.0132,-0.0119,-0.0127,-0.0144,-0.0145,-0.016,-0.017,-0.018,-0.0189,-0.0191,-0.0209,-0.0204,-0.0241,-0.0246,-0.0182,-0.0182,-0.0182,-0.0226,0,-0.0203,-0.0156,-0.0155,-0.0115,-0.0089,-0.0095,-0.008,-0.0075,-0.0077,-0.007,-0.0092,-0.0087,-0.012,-0.012,-0.0135,-0.0165,-0.0181,-0.0168,-0.0217,-0.0219,-0.0252,-0.0248,-0.0277,-0.0321,-0.0228,-0.0228,-0.0228,0,-0.0167,-0.014,-0.0092,-0.0061,-0.0051,-0.0034,-0.001,0.0001,0.0005,0.0001,-0.0006,-0.0027,-0.0047,-0.0078,-0.0127,-0.0116,-0.0159,-0.0188,-0.0191,-0.0235,-0.0257,-0.0321,-0.0328,-0.0477,-0.0231,-0.0231,-0.023,0,-0.0144,-0.01,-0.0059,-0.0045,-0.0013,0.0005,0.0016,0.0029,0.0049,0.0046,0.0053,0.0024,0.001,-0.0042,-0.0116,-0.0118,-0.0175,-0.0185,-0.0259,-0.0263,-0.0303,-0.031,-0.0459,-0.022,-0.022,-0.022,-0.022,0,-0.0108,-0.0079,-0.0041,-0.0015,0.0034,0.0038,0.0086,0.009,0.0106,0.0136,0.0092,0.01,0.0019,-0.0027,-0.0098,-0.0187,-0.0164,-0.0258,-0.0274,-0.0295,-0.03,-0.0444,-0.0528,-0.0222,-0.0221,-0.0221,-0.0221,0,-0.0086,-0.0063,-0.001,0.0035,0.0051,0.0087,0.0133,0.017,0.0168,0.0203,0.02,0.0158,0.0093,0.0003,-0.0085,-0.0163,-0.0338,-0.0281,-0.0309,-0.0328,-0.0538,-0.0618,-0.0758,-0.0847,-0.0369,-0.037,-0.0371,0,-0.0073,-0.0038,0.0032,0.0071,0.0096,0.0148,0.019,0.0203,0.0242,0.0242,0.0263,0.0203,0.0172,0.0014,-0.0134,-0.0272,-0.039,-0.0394,-0.0405,-0.0561,-0.0662,-0.0694,-0.0761,-0.0451,-0.0452,-0.0454,-0.0455,0,-0.0041,-0.001,0.0041,0.0128,0.0182,0.0242,0.0297,0.0334,0.035,0.0365,0.037,0.0339,0.017,0.0016,-0.0187,-0.0298,-0.0527,-0.0424,-0.0575,-0.0735,-0.0789,-0.0878,-0.042,-0.0466,-0.0465,-0.0464,-0.0463,-0.0463,-0.0013,0.0036,0.0112,0.0196,0.0258,0.0332,0.0394,0.044,0.0492,0.0528,0.0466,0.0447,0.0183,-0.0102,-0.0291,-0.0647,-0.0623,-0.0742,-0.0825,-0.0839,-0.0938,-0.0513,-0.0583,-0.0582,-0.0582,-0.0581,-0.0581,0,0.0022,0.0088,0.0173,0.0276,0.0357,0.0375,0.0467,0.0533,0.0603,0.062,0.0612,0.0452,0.0119,-0.0209,-0.0674,-0.096,-0.1071,-0.1137,-0.1201,-0.125,-0.0865,-0.0882,-0.1033,-0.1033,-0.1033,-0.1032,-0.1032,-0.1032,0.0048,0.0138,0.0195,0.0344,0.0415,0.0529,0.0588,0.067,0.0719,0.0751,0.0724,0.0658,0.0323,-0.051,-0.1137,-0.1305,-0.1545,-0.1601,-0.1704,-0.146,-0.1429,-0.14,-0.1436,-0.1701,-0.1701,-0.2049,-0.2053,-0.2056]}],[{"header":{"parameterUnit":"m.s-1","parameterCategory":2,"la1":30.2991,"la2":30.254,"lo1":-89.0895,"lo2":-89.0444,"dy":0.0017,"dx":0.0017,"nx":28,"ny":28,"refTime":"2025-11-09T03:00:00:Z","depth":"2","parameterNumber":2,"parameterNumberName":"U-component_of_CURRENTS"},"data":[0,0,0,0,0,0,0,0,0,0,0,0,0,0,0,0,0,0,0,0,0,0,0,0,0,0,0,0,0,0,0,0,0,0,0,0,0,0,0,0,0,0,0,0,0,0,0,0,0,0,0,0,0,0,0,0,0,0,0.151,0.151,0,0.1503,0.1502,0.1502,0.1497,0.1498,0.1498,0.1499,0.1496,0.1496,0.1496,0,0,0,0,0,0,0,0,0,0,0,0,0,0.1486,0.1486,0.151,0.151,0.1511,0.1503,0.1502,0.1502,0.1497,0.1498,0.1498,0.1499,0.1497,0.1496,0.1496,0,0,0,0,0,0,0,0,0,0,0,0,0,0.1485,0.1486,0.151,0.1511,0.1511,0.1503,0.1502,0.1501,0.1497,0.1498,0.1498,0.1499,0.1497,0.1496,0.1496,0.148,0,0,0.1494,0.1493,0,0,0,0,0,0,0,0,0.1485,0.1486,0.151,0.1511,0.1511,0.1505,0.1493,0.1496,0.1497,0.1498,0.1499,0.1499,0.1502,0.1501,0.1492,0.148,0.148,0.1494,0.1493,0.1493,0.1493,0,0,0,0,0,0,0,0.1485,0.1486,0.1503,0.1511,0.1511,0.15,0.15,0.1493,0.1494,0.1498,0.1499,0.1504,0.1502,0.1493,0.1492,0.148,0.1494,0.1493,0.1493,0.1492,0.1489,0.149,0,0,0,0,0,0,0.1496,0.1486,0.1503,0.1503,0.1504,0.15,0.15,0.1503,0.1494,0.1494,0.1504,0.1504,0.1494,0.1493,0.1492,0.1513,0.1493,0.1492,0.1492,0.1489,0.149,0.149,0,0,0,0,0,0,0.1496,0.1498,0.1503,0.1498,0.1498,0.1501,0.1503,0.1503,0.1501,0.1499,0.1499,0.1505,0.1494,0.1493,0.1494,0.1511,0.1492,0.1492,0.1489,0.1489,0.149,0.1528,0,0,0,0,0,0,0.1495,0.1497,0.1505,0.1498,0.1499,0.1507,0.1503,0.1502,0.1506,0.1506,0.15,0.15,0.1494,0.1495,0.1494,0.151,0.1491,0.1488,0.1489,0.149,0.1527,0.153,0.1533,0,0,0,0,0,0.1494,0.1506,0.1506,0.1508,0.151,0.1508,0.1507,0.1507,0.1506,0.1507,0.1503,0.15,0.1498,0.1495,0.1493,0.151,0.1488,0.1489,0.149,0.1525,0.1529,0.1533,0,0,0,0,0,0,0.1502,0.1506,0.1506,0.152,0.1518,0.1509,0.1514,0.151,0.1505,0.1507,0.15,0.15,0.1511,0.1499,0.1496,0.1509,0.1494,0.1494,0.1522,0.1526,0.1529,0.1542,0.1491,0,0,0,0,0,0.1507,0.1514,0.1515,0.1524,0.1525,0.1518,0.1519,0.1517,0.1513,0.1511,0.1509,0.1506,0.151,0.1509,0.1509,0.1509,0.151,0.1519,0.1522,0.1525,0.1534,0.1546,0.1552,0.1492,0.1492,0.1492,0,0,0.151,0.1516,0.1519,0.1526,0.1522,0.153,0.1519,0.1521,0.153,0.1512,0.1522,0.1519,0.1513,0.1522,0.1525,0.1514,0.1541,0.1525,0.1528,0.1536,0.1547,0.1553,0.1559,0.1492,0.1492,0.1492,0,0,0.1524,0.1526,0.1539,0.1539,0.1544,0.154,0.1544,0.1539,0.154,0.1544,0.1542,0.1548,0.1542,0.1548,0.1549,0.1566,0.1562,0.1564,0.1587,0.1599,0.1604,0.1609,0.1618,0.1623,0.156,0.156,0.156,0,0.1533,0.1546,0.1541,0.1554,0.1559,0.1548,0.1561,0.1559,0.1556,0.1567,0.1555,0.1566,0.1559,0.1581,0.1586,0.1576,0.1578,0.1575,0.1604,0.1609,0.1613,0.1621,0.1626,0.1562,0.1562,0.1562,0.1562,0,0.1553,0.1565,0.1571,0.1584,0.1588,0.1593,0.1595,0.1601,0.16,0.1604,0.1624,0.1611,0.162,0.1618,0.1606,0.1634,0.1626,0.1612,0.1598,0.1622,0.1628,0.1633,0.1565,0.1564,0.1564,0.1563,0,0,0.1578,0.1584,0.1589,0.1597,0.1603,0.1608,0.1627,0.1645,0.1665,0.1661,0.1686,0.1688,0.1683,0.1683,0.167,0.1674,0.1702,0.1655,0.1654,0.167,0.1728,0.1758,0.1766,0.1693,0.1694,0.1695,0.1722,0,0.1599,0.162,0.1623,0.1645,0.1655,0.1653,0.1673,0.1688,0.1697,0.1718,0.1715,0.173,0.1707,0.1709,0.1713,0.1707,0.1716,0.1696,0.1698,0.1698,0.1727,0.1773,0.1563,0.1573,0.1726,0.1727,0.1728,0,0.1628,0.1638,0.1657,0.1675,0.1681,0.1693,0.1725,0.1742,0.1769,0.1777,0.1793,0.1788,0.18,0.1768,0.178,0.1767,0.1755,0.1745,0.1745,0.1765,0.1738,0.1573,0.1576,0.1735,0.1735,0.1734,0.1734,0,0.1647,0.1668,0.168,0.1683,0.1701,0.1716,0.1732,0.1763,0.1787,0.1816,0.1835,0.1846,0.1853,0.1842,0.1825,0.1802,0.1836,0.18,0.1818,0.1819,0.1639,0.1624,0.1815,0.1815,0.1815,0.1814,0.1814,0,0.1669,0.1686,0.1687,0.1694,0.1719,0.1732,0.1767,0.1789,0.1825,0.1863,0.1865,0.1896,0.1873,0.1885,0.1854,0.1866,0.1863,0.1842,0.1838,0.1647,0.1633,0.1768,0.1762,0.1815,0.1815,0.1815,0.1815,0,0.1685,0.1687,0.1704,0.1718,0.1725,0.1743,0.1781,0.1808,0.1847,0.1894,0.1905,0.1943,0.1971,0.1952,0.1944,0.1918,0.1912,0.1913,0.1699,0.1671,0.1875,0.187,0.1936,0.1937,0.1938,0.1939,0.194,0,0.169,0.1697,0.1709,0.1712,0.1716,0.1743,0.1762,0.181,0.1843,0.1928,0.1952,0.2003,0.2038,0.2054,0.1954,0.1915,0.1971,0.1766,0.1699,0.1903,0.1892,0.1885,0.1879,0.1457,0.1454,0.1451,0.1449,0,0.1698,0.1699,0.1702,0.1702,0.1717,0.1738,0.1774,0.1807,0.1872,0.1921,0.2009,0.2051,0.2039,0.1907,0.1863,0.1815,0.1755,0.1721,0.1969,0.1489,0.1462,0.1448,0.1455,0.1426,0.1428,0.143,0.1431,0.1432,0.1697,0.1689,0.1683,0.168,0.1696,0.1716,0.1728,0.1748,0.1799,0.1781,0.1905,0.1835,0.183,0.1621,0.1591,0.1537,0.1655,0.1582,0.1583,0.159,0.156,0.1541,0.1512,0.1515,0.1517,0.1519,0.1521,0,0.1652,0.1665,0.1658,0.1649,0.1626,0.1671,0.1715,0.1668,0.167,0.1611,0.1593,0.1387,0.1307,0.1329,0.1183,0.1227,0.1143,0.1231,0.1081,0.1105,0.1127,0.1068,0.0892,0.089,0.0889,0.0888,0,0,0.1634,0.1601,0.1583,0.1549,0.1565,0.1527,0.1543,0.1472,0.1396,0.1228,0.1104,0.1044,0.1197,0.0941,0.097,0.0915,0.099,0.088,0.1375,0.1215,0.1233,0.1318,0.1257,0,0,0,0,0]},{"header":{"parameterUnit":"m.s-1","parameterCategory":2,"la1":30.2991,"la2":30.254,"lo1":-89.0895,"lo2":-89.0444,"dy":0.0017,"dx":0.0017,"nx":28,"ny":28,"refTime":"2025-11-09T03:00:00:Z","depth":"2","parameterNumber":3,"parameterNumberName":"V-component_of_CURRENTS"},"data":[0,0,0,0,0,0,0,0,0,0,0,0,0,0,0,0,0,0,0,0,0,0,0,0,0,0,0,0,0,0,0,0,0,0,0,0,0,0,0,0,0,0,0,0,0,0,0,0,0,0,0,0,0,0,0,0,0,0,-0.027,-0.0271,0,-0.0274,-0.0274,-0.0274,-0.0291,-0.0291,-0.0292,-0.0293,-0.03,-0.03,-0.0299,0,0,0,0,0,0,0,0,0,0,0,0,0,-0.0267,-0.0266,-0.027,-0.0271,-0.0271,-0.0274,-0.0274,-0.0274,-0.029,-0.0291,-0.0292,-0.0293,-0.03,-0.03,-0.0299,0,0,0,0,0,0,0,0,0,0,0,0,0,-0.0265,-0.0266,-0.027,-0.0283,-0.0284,-0.0274,-0.0274,-0.0273,-0.029,-0.0291,-0.0292,-0.0294,-0.03,-0.03,-0.0299,-0.0272,0,0,-0.0297,-0.0296,0,0,0,0,0,0,0,0,-0.0265,-0.0265,-0.0281,-0.0282,-0.0284,-0.0286,-0.0275,-0.0274,-0.029,-0.0284,-0.0293,-0.0294,-0.0297,-0.0297,-0.029,-0.0272,-0.0273,-0.0297,-0.0296,-0.0296,-0.0296,0,0,0,0,0,0,0,-0.0265,-0.0265,-0.0268,-0.0281,-0.0283,-0.0285,-0.0285,-0.0275,-0.0281,-0.0285,-0.0287,-0.0293,-0.0298,-0.029,-0.029,-0.0273,-0.0297,-0.0296,-0.0295,-0.0295,-0.0262,-0.0261,0,0,0,0,0,0,-0.0272,-0.0265,-0.0268,-0.0269,-0.0281,-0.0284,-0.0285,-0.0281,-0.0282,-0.0284,-0.0292,-0.0294,-0.0291,-0.0291,-0.029,-0.0274,-0.0296,-0.0295,-0.0295,-0.0262,-0.0262,-0.0261,0,0,0,0,0,0,-0.0272,-0.0272,-0.0268,-0.0271,-0.0271,-0.0283,-0.0279,-0.0281,-0.0279,-0.0288,-0.029,-0.029,-0.0292,-0.0292,-0.0287,-0.0274,-0.0295,-0.0294,-0.0263,-0.0262,-0.0261,-0.0231,0,0,0,0,0,0,-0.0271,-0.0271,-0.0271,-0.0271,-0.0271,-0.0262,-0.0278,-0.028,-0.0283,-0.0285,-0.0286,-0.0288,-0.0293,-0.0288,-0.0286,-0.0273,-0.0293,-0.0263,-0.0262,-0.0262,-0.0233,-0.0229,-0.0227,0,0,0,0,0,-0.0271,-0.0267,-0.027,-0.0271,-0.027,-0.0262,-0.0261,-0.0272,-0.0282,-0.0275,-0.0282,-0.0288,-0.0282,-0.0287,-0.0285,-0.0271,-0.0264,-0.0263,-0.0262,-0.0234,-0.023,-0.0227,0,0,0,0,0,0,-0.0267,-0.0269,-0.0273,-0.027,-0.0267,-0.0266,-0.0262,-0.0269,-0.0267,-0.0268,-0.028,-0.0281,-0.0273,-0.0276,-0.0281,-0.0261,-0.0275,-0.0273,-0.0254,-0.025,-0.0248,-0.0245,-0.0293,0,0,0,0,0,-0.0265,-0.0261,-0.0263,-0.0259,-0.0254,-0.0256,-0.0255,-0.0259,-0.0259,-0.0259,-0.0265,-0.0268,-0.0264,-0.0262,-0.0259,-0.0243,-0.0256,-0.0235,-0.0232,-0.0229,-0.0226,-0.0234,-0.0231,-0.0258,-0.0258,-0.0258,0,0,-0.0263,-0.0264,-0.0262,-0.0258,-0.0252,-0.0237,-0.0256,-0.0248,-0.024,-0.0259,-0.0249,-0.0256,-0.0258,-0.0245,-0.0241,-0.0247,-0.023,-0.0228,-0.0226,-0.0224,-0.0233,-0.023,-0.0228,-0.0257,-0.0258,-0.0258,0,0,-0.0247,-0.0252,-0.0238,-0.023,-0.0224,-0.0225,-0.0223,-0.022,-0.0222,-0.0212,-0.0226,-0.0229,-0.0221,-0.0223,-0.0221,-0.0199,-0.0215,-0.0197,-0.0177,-0.0184,-0.0182,-0.018,-0.02,-0.0201,-0.0194,-0.0194,-0.0194,0,-0.0245,-0.0225,-0.0233,-0.0213,-0.0205,-0.0218,-0.0195,-0.0194,-0.0195,-0.019,-0.0207,-0.0201,-0.021,-0.0192,-0.019,-0.0191,-0.0203,-0.0189,-0.018,-0.0178,-0.0177,-0.0199,-0.0199,-0.0192,-0.0192,-0.0193,-0.0193,0,-0.0211,-0.0196,-0.0184,-0.0165,-0.0159,-0.014,-0.0141,-0.0137,-0.0147,-0.0149,-0.0141,-0.0156,-0.0155,-0.0157,-0.0168,-0.0157,-0.0172,-0.0177,-0.0189,-0.0173,-0.0196,-0.0198,-0.019,-0.0191,-0.0191,-0.0191,0,0,-0.02,-0.0167,-0.0162,-0.0141,-0.0129,-0.0118,-0.0104,-0.0091,-0.0075,-0.009,-0.0076,-0.0084,-0.0102,-0.0102,-0.0117,-0.0127,-0.0138,-0.0147,-0.0149,-0.0168,-0.0162,-0.0199,-0.0205,-0.014,-0.0139,-0.0139,-0.0185,0,-0.0168,-0.012,-0.0118,-0.0076,-0.0049,-0.0055,-0.0038,-0.0033,-0.0034,-0.0027,-0.0049,-0.0044,-0.0076,-0.0077,-0.0093,-0.0123,-0.0138,-0.0125,-0.0175,-0.0177,-0.0211,-0.0206,-0.0121,-0.0156,-0.0186,-0.0187,-0.0187,0,-0.0131,-0.0104,-0.0054,-0.0021,-0.001,0.0008,0.0033,0.0046,0.005,0.0046,0.0038,0.0017,-0.0003,-0.0035,-0.0084,-0.0073,-0.0117,-0.0146,-0.0149,-0.0194,-0.0216,-0.0176,-0.0158,-0.0189,-0.0189,-0.0189,-0.0189,0,-0.0109,-0.0062,-0.0021,-0.0006,0.0028,0.0047,0.0059,0.0073,0.0094,0.0091,0.0098,0.0069,0.0053,0.0001,-0.0074,-0.0076,-0.0134,-0.0143,-0.0218,-0.0221,-0.0164,-0.0163,-0.0179,-0.0178,-0.0178,-0.0178,-0.0178,0,-0.0073,-0.0043,-0.0003,0.0024,0.0075,0.008,0.013,0.0134,0.0151,0.0182,0.0137,0.0145,0.0062,0.0016,-0.0056,-0.0146,-0.0122,-0.0216,-0.0233,-0.0153,-0.0151,-0.019,-0.0191,-0.018,-0.018,-0.0179,-0.0179,0,-0.0053,-0.0028,0.0027,0.0074,0.0091,0.0128,0.0177,0.0216,0.0213,0.0249,0.0246,0.0203,0.0137,0.0046,-0.0043,-0.0121,-0.0202,-0.024,-0.0153,-0.016,-0.0291,-0.029,-0.0326,-0.0328,-0.0329,-0.0331,-0.0332,0,-0.004,-0.0004,0.0068,0.0109,0.0135,0.019,0.0234,0.0249,0.0289,0.0288,0.031,0.0247,0.0223,0.0064,-0.0044,-0.0171,-0.0227,-0.0235,-0.023,-0.0293,-0.0305,-0.0302,-0.0298,-0.0141,-0.014,-0.014,-0.0139,0,-0.0008,0.0023,0.0076,0.0165,0.0222,0.0286,0.0343,0.0382,0.0399,0.0423,0.0427,0.0402,0.0267,0.0175,-0.0016,-0.0103,-0.0209,-0.0232,-0.0297,-0.0129,-0.0125,-0.0135,-0.0136,-0.0134,-0.0135,-0.0135,-0.0135,-0.0135,0.0019,0.0069,0.0147,0.0234,0.0299,0.0378,0.0442,0.0518,0.0584,0.0675,0.0588,0.0604,0.042,0.0255,0.0048,-0.0159,-0.016,-0.0237,-0.0235,-0.0235,-0.0217,-0.0217,-0.0241,-0.0242,-0.0243,-0.0244,-0.0244,0,0.0082,0.0121,0.0208,0.0315,0.0414,0.042,0.0517,0.0624,0.0741,0.0827,0.0877,0.0757,0.0602,0.0356,0.0093,-0.0116,-0.01,-0.0219,-0.0139,-0.0141,-0.0144,-0.012,-0.0119,-0.012,-0.0121,-0.0121,0,0,0.0115,0.0212,0.027,0.0418,0.0475,0.0613,0.0677,0.0837,0.0944,0.1093,0.1121,0.1119,0.074,0.0563,0.0279,0.0083,0.0019,0.0044,-0.0022,0.011,0.0109,-0.0111,-0.0072,0,0,0,0,0]}],[{"header":{"parameterUnit":"m.s-1","parameterCategory":2,"la1":30.2991,"la2":30.254,"lo1":-89.0895,"lo2":-89.0444,"dy":0.0017,"dx":0.0017,"nx":28,"ny":28,"refTime":"2025-11-09T03:00:00:Z","depth":"4","parameterNumber":2,"parameterNumberName":"U-component_of_CURRENTS"},"data":[0,0,0,0,0,0,0,0,0,0,0,0,0,0,0,0,0,0,0,0,0,0,0,0,0,0,0,0,0,0,0,0,0,0,0,0,0,0,0,0,0,0,0,0,0,0,0,0,0,0,0,0,0,0,0,0,0,0,0.0427,0.0428,0,0.0471,0.0472,0.0472,0.0501,0.0501,0.0501,0.0501,0.0512,0.0512,0.0512,0,0,0,0,0,0,0,0,0,0,0,0,0,0.0425,0.0424,0.0427,0.0428,0.0428,0.0471,0.0472,0.0473,0.05,0.0501,0.0501,0.0501,0.0512,0.0512,0.0512,0,0,0,0,0,0,0,0,0,0,0,0,0,0.0444,0.0424,0.0427,0.0447,0.0449,0.0471,0.0472,0.0473,0.05,0.0501,0.0501,0.0501,0.0512,0.0512,0.0512,0.0511,0,0,0.0513,0.0513,0,0,0,0,0,0,0,0,0.0442,0.0444,0.0444,0.0446,0.0448,0.048,0.0475,0.0484,0.05,0.0482,0.0501,0.0501,0.0498,0.0499,0.0508,0.0512,0.0512,0.0513,0.0513,0.0514,0.0514,0,0,0,0,0,0,0,0.0441,0.0442,0.0445,0.0444,0.0447,0.0473,0.0475,0.0477,0.0488,0.0483,0.0485,0.0489,0.0499,0.0508,0.0509,0.0512,0.0513,0.0514,0.0514,0.0514,0.0587,0.0588,0,0,0,0,0,0,0.0431,0.0441,0.0444,0.0447,0.0445,0.0473,0.0475,0.047,0.0489,0.0492,0.0489,0.049,0.0508,0.0508,0.0509,0.0567,0.0514,0.0514,0.0514,0.0585,0.0587,0.0589,0,0,0,0,0,0,0.043,0.043,0.0442,0.0445,0.0448,0.0472,0.0466,0.0471,0.0507,0.0493,0.0496,0.0523,0.0508,0.0509,0.0538,0.0565,0.0514,0.0514,0.0583,0.0586,0.0588,0.0645,0,0,0,0,0,0,0.043,0.043,0.0436,0.0444,0.0448,0.0473,0.0466,0.0472,0.0507,0.051,0.0523,0.0523,0.0508,0.0538,0.0539,0.0565,0.0515,0.0581,0.0584,0.0587,0.0641,0.0649,0.0656,0,0,0,0,0,0.043,0.043,0.0436,0.0437,0.045,0.0474,0.048,0.0498,0.0509,0.0531,0.0543,0.0524,0.056,0.054,0.054,0.0567,0.0579,0.0583,0.0587,0.0637,0.0648,0.0656,0,0,0,0,0,0,0.0431,0.0433,0.0439,0.044,0.0466,0.0479,0.0503,0.0517,0.0546,0.0554,0.0544,0.0545,0.0584,0.0571,0.055,0.06,0.0567,0.0571,0.0605,0.0615,0.0623,0.0623,0.0515,0,0,0,0,0,0.0434,0.0438,0.0449,0.0457,0.0472,0.0496,0.0514,0.0527,0.0546,0.0561,0.0569,0.0581,0.0597,0.0603,0.0614,0.0636,0.0628,0.0656,0.0664,0.067,0.0673,0.0691,0.07,0.0602,0.0602,0.0602,0,0,0.0444,0.044,0.0448,0.046,0.0483,0.0508,0.0509,0.0544,0.0568,0.0556,0.06,0.0612,0.0613,0.0643,0.0658,0.0636,0.0695,0.0675,0.0681,0.068,0.0696,0.0706,0.0714,0.0605,0.0604,0.0604,0,0,0.0452,0.0461,0.0469,0.0495,0.0526,0.0536,0.0554,0.0584,0.0606,0.0646,0.0647,0.0674,0.0699,0.0699,0.0703,0.0759,0.0742,0.0774,0.0805,0.0823,0.0831,0.0838,0.0841,0.0847,0.077,0.077,0.077,0,0.0462,0.0471,0.0481,0.0502,0.0529,0.0553,0.0583,0.0606,0.0643,0.0666,0.0669,0.0728,0.0721,0.0758,0.0777,0.0775,0.0785,0.0766,0.0832,0.0838,0.0844,0.0846,0.0852,0.0773,0.0773,0.0773,0.0772,0,0.0485,0.0502,0.0517,0.0544,0.0573,0.061,0.0638,0.0672,0.0702,0.0724,0.0784,0.0789,0.0822,0.0828,0.0817,0.0864,0.0858,0.0844,0.0804,0.0857,0.0856,0.0862,0.0778,0.0777,0.0776,0.0775,0,0,0.0483,0.0521,0.0533,0.0554,0.0605,0.0626,0.0674,0.0719,0.076,0.08,0.0851,0.0881,0.09,0.0906,0.0905,0.0913,0.0954,0.0903,0.0902,0.0898,0.0999,0.0936,0.0935,0.0963,0.0964,0.0966,0.0981,0,0.0504,0.0536,0.0558,0.061,0.0634,0.0678,0.072,0.0766,0.0809,0.0861,0.0884,0.0935,0.0926,0.0953,0.0966,0.0962,0.0973,0.0951,0.0954,0.0954,0.0885,0.0941,0.097,0.0985,0.0987,0.0988,0.0988,0,0.0522,0.054,0.0588,0.0637,0.0657,0.07,0.0777,0.082,0.089,0.0929,0.0987,0.1008,0.1043,0.1022,0.105,0.1045,0.1033,0.1019,0.1019,0.0942,0.0901,0.0922,0.0998,0.0997,0.0997,0.0996,0.0995,0,0.051,0.056,0.0596,0.0623,0.0685,0.0729,0.0774,0.0852,0.0896,0.0983,0.1024,0.1076,0.1107,0.1112,0.1095,0.1085,0.1111,0.1085,0.1015,0.101,0.1034,0.1026,0.1102,0.1102,0.1102,0.1102,0.1102,0,0.0514,0.0544,0.0601,0.0631,0.0684,0.074,0.082,0.087,0.0956,0.1004,0.1068,0.1103,0.1135,0.1149,0.1125,0.1093,0.1139,0.1031,0.1016,0.1058,0.1053,0.1037,0.1029,0.1103,0.1103,0.1103,0.1102,0,0.049,0.0529,0.0572,0.0652,0.068,0.0727,0.0834,0.0879,0.0976,0.1039,0.1068,0.114,0.1163,0.1173,0.1173,0.1123,0.1095,0.1069,0.1118,0.1104,0.0973,0.0968,0.0993,0.0991,0.0989,0.0988,0.0986,0,0.047,0.0495,0.0582,0.0608,0.0652,0.0731,0.0776,0.088,0.0921,0.1041,0.1047,0.1119,0.1149,0.1101,0.1124,0.1093,0.1069,0.1048,0.1006,0.0982,0.0965,0.0963,0.096,0.0984,0.0983,0.0983,0.0983,0,0.0434,0.0483,0.0522,0.0583,0.0635,0.0673,0.0747,0.0773,0.0879,0.0976,0.1001,0.1021,0.1048,0.1049,0.1046,0.1015,0.106,0.103,0.1033,0.0993,0.0971,0.0956,0.0955,0.0977,0.0978,0.0978,0.0979,0,0.0409,0.0426,0.0488,0.0532,0.0587,0.0591,0.0644,0.0687,0.0742,0.0871,0.0877,0.0953,0.1029,0.1009,0.1,0.098,0.0951,0.0895,0.0904,0.091,0.0877,0.0837,0.0798,0,0,0,0,0,0.037,0.038,0.0422,0.0453,0.0507,0.0529,0.0601,0.0653,0.0761,0.0746,0.0812,0.0832,0.0854,0.0895,0.0854,0.0954,0.0946,0.0902,0.0884,0.0945,0.0952,0.092,0,0,0,0,0,0,0.0342,0.0375,0.0395,0.0379,0.0385,0.0414,0.0455,0.0521,0.0524,0.0645,0.0659,0.0758,0.0787,0.0853,0.0827,0.0839,0.0805,0.0957,0.0955,0.0941,0.0947,0.0953,0.0923,0,0,0,0,0]},{"header":{"parameterUnit":"m.s-1","parameterCategory":2,"la1":30.2991,"la2":30.254,"lo1":-89.0895,"lo2":-89.0444,"dy":0.0017,"dx":0.0017,"nx":28,"ny":28,"refTime":"2025-11-09T03:00:00:Z","depth":"4","parameterNumber":3,"parameterNumberName":"V-component_of_CURRENTS"},"data":[0,0,0,0,0,0,0,0,0,0,0,0,0,0,0,0,0,0,0,0,0,0,0,0,0,0,0,0,0,0,0,0,0,0,0,0,0,0,0,0,0,0,0,0,0,0,0,0,0,0,0,0,0,0,0,0,0,0,0.0526,0.0526,0,0.0519,0.0519,0.0519,0.052,0.052,0.052,0.0521,0.0548,0.0549,0.0549,0,0,0,0,0,0,0,0,0,0,0,0,0,0.0493,0.0493,0.0526,0.0526,0.0526,0.052,0.0519,0.0519,0.052,0.052,0.052,0.0521,0.0548,0.0549,0.0549,0,0,0,0,0,0,0,0,0,0,0,0,0,0.0497,0.0494,0.0526,0.0527,0.0527,0.052,0.0519,0.0519,0.052,0.052,0.052,0.0521,0.0548,0.0549,0.055,0.0546,0,0,0.0552,0.0552,0,0,0,0,0,0,0,0,0.0497,0.0498,0.0527,0.0527,0.0527,0.0522,0.0518,0.053,0.052,0.052,0.0521,0.0521,0.0544,0.0545,0.054,0.0547,0.0548,0.0552,0.0552,0.0553,0.0553,0,0,0,0,0,0,0,0.0497,0.0498,0.0521,0.0527,0.0527,0.0512,0.0513,0.052,0.0529,0.052,0.0521,0.0523,0.0544,0.0539,0.0541,0.0549,0.0552,0.0552,0.0553,0.0553,0.0563,0.0563,0,0,0,0,0,0,0.0503,0.0498,0.0522,0.0521,0.0515,0.0513,0.0514,0.0522,0.0528,0.053,0.0523,0.0523,0.0537,0.054,0.0542,0.0543,0.0553,0.0553,0.0554,0.0563,0.0563,0.0563,0,0,0,0,0,0,0.0503,0.0506,0.0522,0.0511,0.0512,0.0514,0.0522,0.0522,0.0517,0.053,0.0532,0.0519,0.0538,0.0541,0.0548,0.0544,0.0554,0.0554,0.0564,0.0563,0.0563,0.0542,0,0,0,0,0,0,0.0502,0.0505,0.0515,0.0511,0.0513,0.0519,0.0522,0.0521,0.0519,0.0519,0.0527,0.053,0.0538,0.0547,0.0549,0.0545,0.0555,0.0564,0.0564,0.0563,0.0543,0.0541,0.0539,0,0,0,0,0,0.0501,0.0514,0.0516,0.0519,0.0526,0.0519,0.0518,0.0519,0.0518,0.0515,0.0522,0.053,0.0547,0.0548,0.055,0.0546,0.0564,0.0564,0.0563,0.0544,0.0541,0.0539,0,0,0,0,0,0,0.0506,0.0516,0.0517,0.0534,0.0527,0.052,0.052,0.0516,0.0517,0.052,0.0528,0.0531,0.0533,0.0544,0.0545,0.0548,0.0556,0.0556,0.0541,0.0539,0.0537,0.054,0.0555,0,0,0,0,0,0.0512,0.0526,0.0523,0.0536,0.053,0.0522,0.052,0.0519,0.0518,0.0518,0.0525,0.0532,0.0532,0.054,0.0543,0.0548,0.0538,0.0547,0.0545,0.0544,0.0547,0.0518,0.0514,0.0562,0.0562,0.0562,0,0,0.0514,0.0525,0.0531,0.0538,0.053,0.0529,0.0521,0.0517,0.0519,0.0522,0.0528,0.0524,0.053,0.0532,0.0535,0.0543,0.0523,0.0543,0.0542,0.0547,0.0517,0.0512,0.0508,0.0562,0.0562,0.0562,0,0,0.0528,0.0535,0.0548,0.0541,0.0538,0.0534,0.0532,0.0523,0.052,0.052,0.052,0.0514,0.0523,0.0523,0.0525,0.0517,0.0509,0.0518,0.0518,0.0489,0.0485,0.0481,0.0452,0.0446,0.0524,0.0524,0.0524,0,0.0535,0.0552,0.0547,0.0553,0.0552,0.0537,0.0539,0.0532,0.0529,0.0528,0.0524,0.0514,0.0518,0.0513,0.0511,0.0513,0.0494,0.0524,0.0486,0.0482,0.0478,0.045,0.0443,0.0522,0.0523,0.0523,0.0523,0,0.0547,0.0562,0.0563,0.0572,0.0568,0.0565,0.0554,0.0551,0.0544,0.0536,0.0521,0.0512,0.0507,0.0503,0.0506,0.0484,0.0477,0.048,0.0489,0.0472,0.0443,0.0437,0.0521,0.0521,0.0522,0.0522,0,0,0.056,0.0573,0.0575,0.0585,0.0577,0.0578,0.0575,0.0569,0.0568,0.0548,0.0538,0.0522,0.0504,0.0504,0.0495,0.0474,0.0427,0.0468,0.0467,0.0435,0.0356,0.0351,0.0344,0.0417,0.0416,0.0415,0.0343,0,0.0572,0.0597,0.0596,0.0613,0.062,0.0605,0.0606,0.0598,0.0582,0.0568,0.0537,0.0523,0.0508,0.0497,0.0469,0.0442,0.041,0.0446,0.0382,0.038,0.0374,0.0336,0.0412,0.0338,0.0337,0.0336,0.0335,0,0.058,0.0602,0.0624,0.0643,0.0642,0.0649,0.0646,0.0644,0.0615,0.0598,0.0563,0.0535,0.0497,0.0483,0.0411,0.0432,0.0391,0.0365,0.0361,0.0362,0.0363,0.0362,0.0323,0.0324,0.0325,0.0326,0.0326,0,0.0596,0.062,0.0647,0.0649,0.0664,0.0671,0.0673,0.0655,0.0657,0.0612,0.0599,0.054,0.0512,0.0449,0.0388,0.0394,0.0306,0.0308,0.0261,0.026,0.0297,0.0302,0.0246,0.0247,0.0247,0.0247,0.0247,0,0.0606,0.0629,0.066,0.0673,0.0705,0.0696,0.0715,0.0701,0.0681,0.0684,0.0615,0.0593,0.0501,0.0441,0.0381,0.0298,0.0294,0.025,0.0237,0.0289,0.0294,0.0291,0.0297,0.0244,0.0245,0.0245,0.0246,0,0.0616,0.0635,0.0674,0.0703,0.0717,0.0736,0.0756,0.0767,0.0733,0.0729,0.0714,0.063,0.0543,0.0452,0.035,0.0296,0.0218,0.019,0.0246,0.024,0.0191,0.0197,0.0122,0.0121,0.0121,0.012,0.012,0,0.0625,0.0648,0.0703,0.0734,0.0752,0.0782,0.0809,0.0798,0.0808,0.0757,0.0758,0.0662,0.06,0.0442,0.0343,0.0208,0.0196,0.0146,0.0167,0.0181,0.0176,0.0184,0.019,0.0118,0.0118,0.0118,0.0118,0,0.0646,0.067,0.0703,0.0766,0.081,0.0857,0.0887,0.0895,0.0878,0.0852,0.0785,0.0681,0.0577,0.0445,0.0333,0.0243,0.0173,0.0138,0.0139,0.0159,0.0176,0.0173,0.0181,0.0115,0.0116,0.0116,0.0116,0,0.0669,0.0696,0.0746,0.0794,0.0858,0.0911,0.0923,0.0928,0.0929,0.0865,0.0844,0.071,0.0629,0.0462,0.0367,0.0266,0.0244,0.0215,0.0211,0.0213,0.0262,0.0299,0.0255,0,0,0,0,0,0.0686,0.0717,0.077,0.0833,0.0894,0.0934,0.0972,0.0974,0.0956,0.0919,0.0878,0.0778,0.0595,0.0508,0.0408,0.0363,0.0235,0.0241,0.0203,0.0101,0.0104,0.0146,0,0,0,0,0,0,0.07,0.0754,0.0772,0.0854,0.0903,0.098,0.1009,0.0999,0.0969,0.0924,0.0829,0.0758,0.0587,0.066,0.0409,0.0374,0.0336,0.0151,0.0149,0.01,0.0102,0.0105,0.0149,0,0,0,0,0]}]]